AAL407 CYXE-KPDX

Flight info

Callsign AAL407
Flight time 2h 0m
Altitude 36000
Route YXE9 OVATA DCT BORIX DCT HELNS HELNS6
Aircraft A320/M-SDE3FGHIRWY/LB1

Departure

Time 2026-04-24 00:29
Airport Saskatoon John G. Diefenbaker International Airport (CYXE)

Arrival

Time 2026-04-24 02:30
Airport Portland International Airport (KPDX)
Time Latitude Longitude Altitude Speed Heading
2026-04-24 00:18 52.17079 -106.69126 1668 ft 0 kts 134°
2026-04-24 00:23 52.17086 -106.69138 1668 ft 2 kts 134°
2026-04-24 00:24 52.17098 -106.69160 1668 ft 3 kts 126°
2026-04-24 00:24 52.17108 -106.69188 1668 ft 3 kts 113°
2026-04-24 00:24 52.17114 -106.69220 1668 ft 3 kts 99°
2026-04-24 00:24 52.17115 -106.69254 1668 ft 3 kts 86°
2026-04-24 00:25 52.17112 -106.69287 1668 ft 3 kts 75°
2026-04-24 00:25 52.17112 -106.69289 1668 ft 0 kts 75°
2026-04-24 00:26 52.17113 -106.69280 1668 ft 6 kts 75°
2026-04-24 00:26 52.17163 -106.69152 1668 ft 15 kts 43°
2026-04-24 00:26 52.17190 -106.68992 1668 ft 16 kts 98°
2026-04-24 00:26 52.17171 -106.68806 1668 ft 17 kts 102°
2026-04-24 00:27 52.17147 -106.68610 1668 ft 18 kts 101°
2026-04-24 00:27 52.17123 -106.68406 1668 ft 14 kts 101°
2026-04-24 00:27 52.17155 -106.68284 1668 ft 14 kts 17°
2026-04-24 00:27 52.17254 -106.68251 1668 ft 15 kts 11°
2026-04-24 00:28 52.17358 -106.68219 1668 ft 15 kts 10°
2026-04-24 00:28 52.17424 -106.68313 1668 ft 3 kts 279°
2026-04-24 00:28 52.17443 -106.68490 1668 ft 50 kts 282°
2026-04-24 00:28 52.17562 -106.69475 1668 ft 125 kts 282°
2026-04-24 00:29 52.17694 -106.70532 1727 ft 154 kts 281°
2026-04-24 00:29 52.17861 -106.72276 2434 ft 157 kts 283°
2026-04-24 00:29 52.18071 -106.74679 3556 ft 171 kts 278°
2026-04-24 00:29 52.18007 -106.76773 3837 ft 203 kts 270°
2026-04-24 00:30 52.17923 -106.78397 3865 ft 232 kts 270°
2026-04-24 00:30 52.17709 -106.82075 4848 ft 242 kts 270°
2026-04-24 00:30 52.17598 -106.83869 5668 ft 240 kts 271°
2026-04-24 00:30 52.17431 -106.86601 6776 ft 241 kts 272°
2026-04-24 00:31 52.17271 -106.89320 7552 ft 248 kts 273°
2026-04-24 00:31 52.17103 -106.92121 8408 ft 250 kts 273°
2026-04-24 00:31 52.16933 -106.94964 9205 ft 254 kts 273°
2026-04-24 00:31 52.16758 -106.97848 9980 ft 258 kts 273°
2026-04-24 00:32 52.16580 -107.00844 10368 ft 277 kts 273°
2026-04-24 00:32 52.16386 -107.04095 10773 ft 292 kts 272°
2026-04-24 00:32 52.16179 -107.07381 11587 ft 294 kts 272°
2026-04-24 00:32 52.15971 -107.10729 12261 ft 299 kts 272°
2026-04-24 00:33 52.15759 -107.14133 12969 ft 303 kts 272°
2026-04-24 00:33 52.15544 -107.17574 13630 ft 307 kts 272°
2026-04-24 00:33 52.15325 -107.21058 14294 ft 311 kts 271°
2026-04-24 00:33 52.15103 -107.24573 14954 ft 315 kts 271°
2026-04-24 00:34 52.14879 -107.28103 15600 ft 318 kts 271°
2026-04-24 00:34 52.14650 -107.31712 16212 ft 322 kts 271°
2026-04-24 00:34 52.14416 -107.35365 16850 ft 325 kts 271°
2026-04-24 00:34 52.14180 -107.39046 17470 ft 328 kts 270°
2026-04-24 00:35 52.13940 -107.42759 18050 ft 332 kts 270°
2026-04-24 00:35 52.13697 -107.46520 18644 ft 336 kts 270°
2026-04-24 00:35 52.13449 -107.50321 19216 ft 339 kts 270°
2026-04-24 00:35 52.13198 -107.54165 19776 ft 343 kts 270°
2026-04-24 00:36 52.12943 -107.58050 20291 ft 347 kts 270°
2026-04-24 00:36 52.12684 -107.61980 20869 ft 349 kts 269°
2026-04-24 00:36 52.12422 -107.65938 21373 ft 353 kts 269°
2026-04-24 00:36 52.12156 -107.69932 21868 ft 357 kts 269°
2026-04-24 00:37 52.11888 -107.73938 22362 ft 360 kts 269°
2026-04-24 00:37 52.11614 -107.78015 22828 ft 364 kts 269°
2026-04-24 00:37 52.11336 -107.82142 23315 ft 366 kts 268°
2026-04-24 00:37 52.11059 -107.86232 23750 ft 370 kts 268°
2026-04-24 00:38 52.10775 -107.90408 24181 ft 373 kts 268°
2026-04-24 00:38 52.10487 -107.94606 24641 ft 374 kts 268°
2026-04-24 00:38 52.10194 -107.98831 25071 ft 377 kts 267°
2026-04-24 00:38 52.09799 -108.03071 25490 ft 380 kts 265°
2026-04-24 00:39 52.09371 -108.07339 25893 ft 383 kts 265°
2026-04-24 00:39 52.08950 -108.11573 26333 ft 383 kts 265°
2026-04-24 00:39 52.08531 -108.15837 26762 ft 383 kts 265°
2026-04-24 00:39 52.08111 -108.20139 27133 ft 385 kts 266°
2026-04-24 00:40 52.07693 -108.24445 27486 ft 387 kts 266°
2026-04-24 00:40 52.07273 -108.28772 27819 ft 389 kts 266°
2026-04-24 00:40 52.06850 -108.33127 28168 ft 390 kts 266°
2026-04-24 00:40 52.06427 -108.37480 28472 ft 392 kts 266°
2026-04-24 00:41 52.06000 -108.41865 28781 ft 393 kts 266°
2026-04-24 00:41 52.05572 -108.46248 29087 ft 394 kts 266°
2026-04-24 00:41 52.05141 -108.50659 29363 ft 396 kts 266°
2026-04-24 00:41 52.04707 -108.55079 29663 ft 396 kts 266°
2026-04-24 00:42 52.04269 -108.59523 29922 ft 398 kts 267°
2026-04-24 00:42 52.03829 -108.63965 30193 ft 398 kts 267°
2026-04-24 00:42 52.03387 -108.68414 30433 ft 400 kts 267°
2026-04-24 00:42 52.02949 -108.72820 30688 ft 400 kts 268°
2026-04-24 00:43 52.02502 -108.77284 30951 ft 401 kts 268°
2026-04-24 00:43 52.02054 -108.81756 31169 ft 402 kts 268°
2026-04-24 00:43 52.01601 -108.86255 31403 ft 403 kts 268°
2026-04-24 00:43 52.01149 -108.90732 31627 ft 404 kts 269°
2026-04-24 00:44 52.00693 -108.95243 31887 ft 404 kts 269°
2026-04-24 00:44 52.00236 -108.99739 32157 ft 404 kts 269°
2026-04-24 00:44 51.99776 -109.04250 32370 ft 406 kts 269°
2026-04-24 00:44 51.99310 -109.08737 32907 ft 399 kts 270°
2026-04-24 00:45 51.98849 -109.13168 33145 ft 400 kts 270°
2026-04-24 00:45 51.98389 -109.17638 33319 ft 402 kts 271°
2026-04-24 00:45 51.97926 -109.22114 33578 ft 403 kts 271°
2026-04-24 00:45 51.97460 -109.26614 33785 ft 404 kts 271°
2026-04-24 00:46 51.96998 -109.31057 34005 ft 405 kts 271°
2026-04-24 00:46 51.96521 -109.35631 34231 ft 407 kts 271°
2026-04-24 00:46 51.96047 -109.40152 34492 ft 407 kts 271°
2026-04-24 00:46 51.95577 -109.44612 34755 ft 407 kts 270°
2026-04-24 00:47 51.95099 -109.49136 34994 ft 408 kts 270°
2026-04-24 00:47 51.94616 -109.53680 35205 ft 409 kts 270°
2026-04-24 00:47 51.94132 -109.58232 35416 ft 410 kts 270°
2026-04-24 00:47 51.93646 -109.62782 35682 ft 410 kts 270°
2026-04-24 00:48 51.93156 -109.67345 35926 ft 411 kts 270°
2026-04-24 00:48 51.92664 -109.71931 36040 ft 415 kts 270°
2026-04-24 00:48 51.91668 -109.81119 36076 ft 412 kts 270°
2026-04-24 00:49 51.90668 -109.90242 36080 ft 411 kts 270°
2026-04-24 00:49 51.89114 -109.99246 36080 ft 426 kts 259°
2026-04-24 00:50 51.86406 -110.07956 36082 ft 439 kts 251°
2026-04-24 00:50 51.83343 -110.16500 36091 ft 439 kts 250°
2026-04-24 00:51 51.80265 -110.25046 36093 ft 438 kts 250°
2026-04-24 00:51 51.77211 -110.33503 36098 ft 438 kts 250°
2026-04-24 00:52 51.74136 -110.41989 36102 ft 438 kts 251°
2026-04-24 00:52 51.71059 -110.50447 36109 ft 437 kts 251°
2026-04-24 00:53 51.67971 -110.58901 36113 ft 437 kts 251°
2026-04-24 00:53 51.64883 -110.67318 36117 ft 436 kts 251°
2026-04-24 00:54 51.61786 -110.75731 36120 ft 435 kts 251°
2026-04-24 00:54 51.58715 -110.84037 36170 ft 434 kts 251°
2026-04-24 00:55 51.55614 -110.92403 36186 ft 434 kts 251°
2026-04-24 00:55 51.52505 -111.00763 36188 ft 436 kts 251°
2026-04-24 00:56 51.49405 -111.09067 36162 ft 435 kts 251°
2026-04-24 00:56 51.46284 -111.17399 36164 ft 435 kts 251°
2026-04-24 00:57 51.43169 -111.25688 36168 ft 434 kts 251°
2026-04-24 00:58 51.38492 -111.38082 36174 ft 434 kts 251°
2026-04-24 00:58 51.35343 -111.46393 36178 ft 434 kts 251°
2026-04-24 00:59 51.32221 -111.54605 36181 ft 434 kts 251°
2026-04-24 00:59 51.29085 -111.62826 36185 ft 433 kts 251°
2026-04-24 01:00 51.25940 -111.71047 36188 ft 433 kts 251°
2026-04-24 01:00 51.22794 -111.79245 36191 ft 433 kts 251°
2026-04-24 01:01 51.19641 -111.87433 36194 ft 433 kts 251°
2026-04-24 01:01 51.16493 -111.95581 36197 ft 433 kts 251°
2026-04-24 01:02 51.13328 -112.03750 36200 ft 434 kts 251°
2026-04-24 01:02 51.10168 -112.11879 36219 ft 434 kts 250°
2026-04-24 01:03 51.06988 -112.20035 36225 ft 432 kts 250°
2026-04-24 01:03 51.03856 -112.28189 36229 ft 432 kts 250°
2026-04-24 01:04 51.00743 -112.36382 36232 ft 432 kts 251°
2026-04-24 01:04 50.97672 -112.44501 36236 ft 431 kts 251°
2026-04-24 01:05 50.94600 -112.52666 36239 ft 430 kts 251°
2026-04-24 01:05 50.91546 -112.60831 36242 ft 430 kts 251°
2026-04-24 01:06 50.88504 -112.69004 36248 ft 430 kts 251°
2026-04-24 01:06 50.85476 -112.77190 36253 ft 430 kts 251°
2026-04-24 01:07 50.82478 -112.85328 36267 ft 429 kts 251°
2026-04-24 01:07 50.79489 -112.93498 36274 ft 429 kts 251°
2026-04-24 01:08 50.76514 -113.01672 36275 ft 429 kts 251°
2026-04-24 01:08 50.73551 -113.09872 36276 ft 429 kts 251°
2026-04-24 01:09 50.70630 -113.18023 36276 ft 429 kts 251°
2026-04-24 01:09 50.67695 -113.26209 36272 ft 432 kts 247°
2026-04-24 01:09 50.65681 -113.29877 36277 ft 454 kts 231°
2026-04-24 01:10 50.63150 -113.32959 36280 ft 464 kts 224°
2026-04-24 01:10 50.60324 -113.35546 36271 ft 479 kts 212°
2026-04-24 01:10 50.57072 -113.37000 36276 ft 495 kts 196°
2026-04-24 01:11 50.50623 -113.39744 36274 ft 470 kts 218°
2026-04-24 01:11 50.48067 -113.42733 36277 ft 448 kts 234°
2026-04-24 01:11 50.46097 -113.46429 36284 ft 437 kts 242°
2026-04-24 01:12 50.42431 -113.54037 36278 ft 437 kts 242°
2026-04-24 01:12 50.38752 -113.61624 36281 ft 436 kts 242°
2026-04-24 01:13 50.35094 -113.69140 36283 ft 437 kts 242°
2026-04-24 01:13 50.31397 -113.76710 36284 ft 437 kts 241°
2026-04-24 01:14 50.27703 -113.84246 36285 ft 436 kts 241°
2026-04-24 01:14 50.24000 -113.91774 36286 ft 436 kts 241°
2026-04-24 01:15 50.20312 -113.99241 36287 ft 435 kts 241°
2026-04-24 01:15 50.16606 -114.06724 36284 ft 436 kts 240°
2026-04-24 01:16 50.12892 -114.14197 36284 ft 436 kts 240°
2026-04-24 01:16 50.09169 -114.21666 36283 ft 436 kts 240°
2026-04-24 01:17 50.05434 -114.29139 36283 ft 437 kts 240°
2026-04-24 01:17 50.01690 -114.36606 36282 ft 437 kts 240°
2026-04-24 01:18 49.97951 -114.44041 36278 ft 436 kts 240°
2026-04-24 01:18 49.94229 -114.51423 36276 ft 437 kts 240°
2026-04-24 01:19 49.90467 -114.58865 36273 ft 438 kts 240°
2026-04-24 01:19 49.87332 -114.65043 36269 ft 438 kts 240°
2026-04-24 01:20 49.82934 -114.73693 36263 ft 439 kts 239°
2026-04-24 01:20 49.79762 -114.79914 36258 ft 439 kts 239°
2026-04-24 01:21 49.75993 -114.87284 36250 ft 440 kts 239°
2026-04-24 01:21 49.72180 -114.94720 36241 ft 440 kts 239°
2026-04-24 01:22 49.68369 -115.02130 36232 ft 440 kts 239°
2026-04-24 01:22 49.64565 -115.09508 36223 ft 441 kts 239°
2026-04-24 01:23 49.60735 -115.16912 36214 ft 441 kts 239°
2026-04-24 01:23 49.56900 -115.24309 36201 ft 442 kts 239°
2026-04-24 01:24 49.53049 -115.31712 36194 ft 442 kts 239°
2026-04-24 01:24 49.49221 -115.39053 36186 ft 442 kts 238°
2026-04-24 01:25 49.45372 -115.46416 36183 ft 443 kts 238°
2026-04-24 01:25 49.41497 -115.53804 36181 ft 443 kts 238°
2026-04-24 01:26 49.37624 -115.61167 36180 ft 443 kts 238°
2026-04-24 01:26 49.33760 -115.68493 36179 ft 443 kts 238°
2026-04-24 01:27 49.29876 -115.75838 36177 ft 443 kts 238°
2026-04-24 01:27 49.25993 -115.83158 36165 ft 443 kts 238°
2026-04-24 01:28 49.22106 -115.90466 36161 ft 442 kts 238°
2026-04-24 01:28 49.18211 -115.97772 36156 ft 442 kts 238°
2026-04-24 01:29 49.14310 -116.05069 36151 ft 444 kts 238°
2026-04-24 01:29 49.10397 -116.12361 36145 ft 444 kts 237°
2026-04-24 01:30 49.05956 -116.18946 36139 ft 461 kts 219°
2026-04-24 01:30 49.03052 -116.21135 36137 ft 472 kts 206°
2026-04-24 01:30 48.99821 -116.22509 36141 ft 474 kts 204°
2026-04-24 01:30 48.96907 -116.24553 36131 ft 461 kts 219°
2026-04-24 01:31 48.94465 -116.27576 36137 ft 450 kts 230°
2026-04-24 01:31 48.90203 -116.34478 36130 ft 445 kts 234°
2026-04-24 01:32 48.86160 -116.41589 36128 ft 443 kts 237°
2026-04-24 01:32 48.82297 -116.48861 36128 ft 442 kts 238°
2026-04-24 01:33 48.78474 -116.56124 36127 ft 442 kts 238°
2026-04-24 01:33 48.74634 -116.63425 36127 ft 442 kts 238°
2026-04-24 01:34 48.70801 -116.70710 36123 ft 442 kts 238°
2026-04-24 01:34 48.66975 -116.77998 36120 ft 442 kts 238°
2026-04-24 01:35 48.63146 -116.85306 36119 ft 442 kts 238°
2026-04-24 01:35 48.59334 -116.92594 36117 ft 442 kts 238°
2026-04-24 01:36 48.55520 -116.99905 36116 ft 442 kts 238°
2026-04-24 01:36 48.51775 -117.07197 36117 ft 438 kts 243°
2026-04-24 01:37 48.48633 -117.15042 36121 ft 436 kts 245°
2026-04-24 01:37 48.45524 -117.22928 36121 ft 437 kts 245°
2026-04-24 01:38 48.42423 -117.30795 36121 ft 437 kts 245°
2026-04-24 01:38 48.39332 -117.38622 36119 ft 437 kts 245°
2026-04-24 01:39 48.36215 -117.46501 36120 ft 438 kts 245°
2026-04-24 01:39 48.33096 -117.54360 36121 ft 438 kts 245°
2026-04-24 01:40 48.29965 -117.62224 36120 ft 438 kts 245°
2026-04-24 01:40 48.26833 -117.70067 36118 ft 437 kts 244°
2026-04-24 01:41 48.23719 -117.77840 36117 ft 437 kts 244°
2026-04-24 01:41 48.20577 -117.85660 36117 ft 438 kts 244°
2026-04-24 01:42 48.17426 -117.93476 36118 ft 438 kts 244°
2026-04-24 01:42 48.14269 -118.01285 36119 ft 438 kts 244°
2026-04-24 01:43 48.11112 -118.09070 36119 ft 438 kts 244°
2026-04-24 01:43 48.07941 -118.16868 36119 ft 438 kts 244°
2026-04-24 01:44 48.04785 -118.24606 36118 ft 438 kts 244°
2026-04-24 01:44 48.01608 -118.32371 36117 ft 438 kts 244°
2026-04-24 01:45 47.98420 -118.40142 36116 ft 438 kts 244°
2026-04-24 01:45 47.95228 -118.47900 36115 ft 438 kts 244°
2026-04-24 01:46 47.92049 -118.55603 36114 ft 438 kts 244°
2026-04-24 01:46 47.88841 -118.63354 36109 ft 438 kts 244°
2026-04-24 01:47 47.85630 -118.71092 36109 ft 439 kts 243°
2026-04-24 01:47 47.82432 -118.78772 36108 ft 439 kts 243°
2026-04-24 01:48 47.79215 -118.86477 36108 ft 438 kts 243°
2026-04-24 01:48 47.75990 -118.94181 36108 ft 438 kts 243°
2026-04-24 01:49 47.72759 -119.01876 36108 ft 439 kts 243°
2026-04-24 01:49 47.69529 -119.09554 36107 ft 438 kts 243°
2026-04-24 01:50 47.66296 -119.17213 36105 ft 438 kts 243°
2026-04-24 01:50 47.63083 -119.24803 36103 ft 438 kts 243°
2026-04-24 01:51 47.59835 -119.32451 36100 ft 438 kts 243°
2026-04-24 01:51 47.56582 -119.40093 36096 ft 438 kts 243°
2026-04-24 01:52 47.53315 -119.47740 36094 ft 438 kts 243°
2026-04-24 01:52 47.50056 -119.55351 36093 ft 438 kts 243°
2026-04-24 01:53 47.46808 -119.62916 36093 ft 438 kts 242°
2026-04-24 01:53 47.43531 -119.70525 36092 ft 438 kts 242°
2026-04-24 01:54 47.40250 -119.78122 36092 ft 438 kts 242°
2026-04-24 01:54 47.36973 -119.85690 36092 ft 438 kts 242°
2026-04-24 01:55 47.33684 -119.93263 36092 ft 438 kts 242°
2026-04-24 01:55 47.30416 -120.00770 36092 ft 438 kts 242°
2026-04-24 01:56 47.27121 -120.08315 36092 ft 438 kts 242°
2026-04-24 01:56 47.23820 -120.15856 36093 ft 438 kts 242°
2026-04-24 01:57 47.20502 -120.23413 36098 ft 438 kts 242°
2026-04-24 01:57 47.17187 -120.30942 36106 ft 439 kts 242°
2026-04-24 01:58 47.13879 -120.38435 36113 ft 439 kts 242°
2026-04-24 01:58 47.10550 -120.45956 36117 ft 439 kts 242°
2026-04-24 01:59 47.07210 -120.53480 36119 ft 439 kts 242°
2026-04-24 01:59 47.05546 -120.57220 35765 ft 437 kts 242°
2026-04-24 01:59 47.03876 -120.60972 34807 ft 441 kts 242°
2026-04-24 01:59 47.02204 -120.64720 34154 ft 438 kts 241°
2026-04-24 02:00 47.00538 -120.68446 33638 ft 431 kts 241°
2026-04-24 02:00 46.98904 -120.72094 33208 ft 423 kts 241°
2026-04-24 02:00 46.97306 -120.75657 32779 ft 416 kts 241°
2026-04-24 02:00 46.95728 -120.79171 32354 ft 410 kts 241°
2026-04-24 02:01 46.94085 -120.82597 31559 ft 413 kts 237°
2026-04-24 02:01 46.92319 -120.85986 30434 ft 424 kts 237°
2026-04-24 02:01 46.90510 -120.89436 29328 ft 432 kts 236°
2026-04-24 02:01 46.88707 -120.92863 28702 ft 427 kts 236°
2026-04-24 02:02 46.86910 -120.96272 28205 ft 419 kts 236°
2026-04-24 02:02 46.85140 -120.99624 27772 ft 411 kts 236°
2026-04-24 02:02 46.83413 -121.02894 27348 ft 402 kts 236°
2026-04-24 02:02 46.81719 -121.06096 26934 ft 395 kts 236°
2026-04-24 02:03 46.78417 -121.12332 26127 ft 381 kts 236°
2026-04-24 02:03 46.76805 -121.15372 25735 ft 376 kts 236°
2026-04-24 02:03 46.75213 -121.18370 25347 ft 371 kts 236°
2026-04-24 02:04 46.73641 -121.21329 24966 ft 366 kts 236°
2026-04-24 02:04 46.72110 -121.24207 24594 ft 362 kts 236°
2026-04-24 02:04 46.70569 -121.27100 24221 ft 358 kts 236°
2026-04-24 02:04 46.69048 -121.29955 23856 ft 357 kts 236°
2026-04-24 02:05 46.67529 -121.32803 23489 ft 354 kts 236°
2026-04-24 02:05 46.66021 -121.35627 23124 ft 353 kts 236°
2026-04-24 02:05 46.64518 -121.38438 22763 ft 351 kts 235°
2026-04-24 02:05 46.63026 -121.41228 22406 ft 349 kts 235°
2026-04-24 02:06 46.61533 -121.44014 22049 ft 347 kts 235°
2026-04-24 02:06 46.60048 -121.46787 21697 ft 346 kts 235°
2026-04-24 02:06 46.58577 -121.49528 21346 ft 343 kts 235°
2026-04-24 02:06 46.57124 -121.52233 21002 ft 342 kts 235°
2026-04-24 02:07 46.55663 -121.54949 20657 ft 341 kts 235°
2026-04-24 02:07 46.54208 -121.57652 20321 ft 339 kts 234°
2026-04-24 02:07 46.52756 -121.60348 19979 ft 337 kts 234°
2026-04-24 02:07 46.51309 -121.63030 19617 ft 336 kts 234°
2026-04-24 02:08 46.49863 -121.65711 19063 ft 339 kts 234°
2026-04-24 02:08 46.48902 -121.67490 18827 ft 336 kts 234°
2026-04-24 02:08 46.47464 -121.70149 18494 ft 332 kts 234°
2026-04-24 02:08 46.46045 -121.72770 18162 ft 328 kts 234°
2026-04-24 02:09 46.44182 -121.76206 17728 ft 327 kts 234°
2026-04-24 02:09 46.42776 -121.78799 17401 ft 326 kts 234°
2026-04-24 02:09 46.41832 -121.80538 17182 ft 325 kts 234°
2026-04-24 02:09 46.40431 -121.83116 16856 ft 324 kts 233°
2026-04-24 02:10 46.39035 -121.85683 16533 ft 323 kts 233°
2026-04-24 02:10 46.37662 -121.88205 16214 ft 322 kts 233°
2026-04-24 02:10 46.36275 -121.90751 15892 ft 321 kts 233°
2026-04-24 02:10 46.34893 -121.93287 15572 ft 320 kts 233°
2026-04-24 02:11 46.33514 -121.95814 15251 ft 319 kts 233°
2026-04-24 02:11 46.32139 -121.98331 14932 ft 318 kts 233°
2026-04-24 02:11 46.30789 -122.00799 14618 ft 317 kts 233°
2026-04-24 02:11 46.29422 -122.03299 14298 ft 316 kts 233°
2026-04-24 02:12 46.28060 -122.05785 13981 ft 315 kts 233°
2026-04-24 02:12 46.26701 -122.08264 13663 ft 314 kts 233°
2026-04-24 02:12 46.25350 -122.10726 13346 ft 313 kts 233°
2026-04-24 02:12 46.23999 -122.13186 13027 ft 312 kts 233°
2026-04-24 02:13 46.22653 -122.15635 12710 ft 311 kts 233°
2026-04-24 02:13 46.21305 -122.18085 12390 ft 310 kts 233°
2026-04-24 02:13 46.19968 -122.20514 12070 ft 309 kts 233°
2026-04-24 02:13 46.18631 -122.22940 11749 ft 308 kts 233°
2026-04-24 02:14 46.17318 -122.25320 11424 ft 306 kts 233°
2026-04-24 02:14 46.15998 -122.27713 11105 ft 304 kts 233°
2026-04-24 02:14 46.14681 -122.30094 10786 ft 303 kts 232°
2026-04-24 02:14 46.13375 -122.32456 10467 ft 300 kts 232°
2026-04-24 02:15 46.12077 -122.34800 10148 ft 297 kts 232°
2026-04-24 02:15 46.10794 -122.37116 9917 ft 294 kts 232°
2026-04-24 02:15 46.09368 -122.39248 9848 ft 297 kts 220°
2026-04-24 02:15 46.07616 -122.40838 9714 ft 298 kts 205°
2026-04-24 02:16 46.05702 -122.41979 9508 ft 297 kts 203°
2026-04-24 02:16 46.03791 -122.43089 9342 ft 296 kts 202°
2026-04-24 02:16 46.01881 -122.44181 9180 ft 294 kts 202°
2026-04-24 02:16 46.00004 -122.45243 9003 ft 293 kts 201°
2026-04-24 02:17 45.98101 -122.46310 8823 ft 293 kts 202°
2026-04-24 02:17 45.96207 -122.47369 8652 ft 292 kts 202°
2026-04-24 02:17 45.94314 -122.48424 8463 ft 291 kts 202°
2026-04-24 02:17 45.92423 -122.49476 8282 ft 290 kts 202°
2026-04-24 02:18 45.90547 -122.50518 8105 ft 288 kts 202°
2026-04-24 02:18 45.88748 -122.51516 7936 ft 287 kts 202°
2026-04-24 02:18 45.86989 -122.52490 7824 ft 280 kts 202°
2026-04-24 02:18 45.85227 -122.53464 7746 ft 269 kts 202°
2026-04-24 02:19 45.83490 -122.54424 7481 ft 267 kts 202°
2026-04-24 02:19 45.81770 -122.55375 7268 ft 262 kts 202°
2026-04-24 02:19 45.80081 -122.56307 7107 ft 261 kts 202°
2026-04-24 02:19 45.78380 -122.57246 6946 ft 260 kts 202°
2026-04-24 02:20 45.76651 -122.57948 6754 ft 259 kts 186°
2026-04-24 02:20 45.74872 -122.57585 6579 ft 261 kts 160°
2026-04-24 02:20 45.73369 -122.56161 6405 ft 261 kts 135°
2026-04-24 02:20 45.72249 -122.54118 6214 ft 262 kts 126°
2026-04-24 02:21 45.71211 -122.51989 5962 ft 260 kts 125°
2026-04-24 02:21 45.70188 -122.49872 5711 ft 258 kts 125°
2026-04-24 02:21 45.69173 -122.47773 5459 ft 255 kts 125°
2026-04-24 02:21 45.68168 -122.45692 5207 ft 253 kts 125°
2026-04-24 02:22 45.67173 -122.43631 4955 ft 251 kts 125°
2026-04-24 02:22 45.66195 -122.41606 4705 ft 249 kts 125°
2026-04-24 02:22 45.65221 -122.39587 4467 ft 244 kts 125°
2026-04-24 02:22 45.64276 -122.37630 4217 ft 235 kts 125°
2026-04-24 02:23 45.63359 -122.35733 3973 ft 231 kts 125°
2026-04-24 02:23 45.62449 -122.33850 3877 ft 230 kts 125°
2026-04-24 02:23 45.61547 -122.31980 3847 ft 223 kts 125°
2026-04-24 02:23 45.60588 -122.30354 3810 ft 211 kts 144°
2026-04-24 02:24 45.59239 -122.29605 3839 ft 209 kts 174°
2026-04-24 02:24 45.57810 -122.29886 3570 ft 209 kts 199°
2026-04-24 02:24 45.56461 -122.30672 3186 ft 209 kts 204°
2026-04-24 02:24 45.55124 -122.31486 2812 ft 207 kts 204°
2026-04-24 02:25 45.53834 -122.32267 2631 ft 182 kts 204°
2026-04-24 02:25 45.52748 -122.32972 3278 ft 170 kts 211°
2026-04-24 02:25 45.51763 -122.33914 3857 ft 173 kts 229°
2026-04-24 02:25 45.51361 -122.35480 4291 ft 177 kts 277°
2026-04-24 02:26 45.51732 -122.37150 4460 ft 181 kts 283°
2026-04-24 02:26 45.51732 -122.38961 4070 ft 185 kts 270°
2026-04-24 02:26 45.52105 -122.40700 3594 ft 182 kts 297°
2026-04-24 02:26 45.52711 -122.42232 3127 ft 174 kts 298°
2026-04-24 02:27 45.53299 -122.43728 2660 ft 171 kts 299°
2026-04-24 02:27 45.53880 -122.45212 2188 ft 171 kts 299°
2026-04-24 02:27 45.54439 -122.46641 1911 ft 155 kts 299°
2026-04-24 02:27 45.54960 -122.47975 1848 ft 153 kts 299°
2026-04-24 02:28 45.55488 -122.49329 1405 ft 162 kts 299°
2026-04-24 02:28 45.56035 -122.50732 941 ft 154 kts 300°
2026-04-24 02:28 45.56547 -122.52042 786 ft 150 kts 300°
2026-04-24 02:28 45.57052 -122.53337 608 ft 149 kts 300°
2026-04-24 02:29 45.57556 -122.54627 424 ft 149 kts 300°
2026-04-24 02:29 45.58056 -122.55907 228 ft 149 kts 300°
2026-04-24 02:29 45.58566 -122.57212 59 ft 148 kts 300°
2026-04-24 02:29 45.58976 -122.58258 45 ft 82 kts 300°
2026-04-24 02:30 45.59108 -122.58594 45 ft 31 kts 296°
2026-04-24 02:30 45.59188 -122.58879 45 ft 29 kts 280°
2026-04-24 02:30 45.59207 -122.59083 45 ft 12 kts 272°
2026-04-24 02:30 45.59195 -122.59207 45 ft 13 kts 262°
2026-04-24 02:31 45.59195 -122.59344 45 ft 14 kts 283°
2026-04-24 02:31 45.59237 -122.59480 45 ft 15 kts 298°
2026-04-24 02:31 45.59275 -122.59597 45 ft 12 kts 261°
2026-04-24 02:31 45.59215 -122.59642 45 ft 9 kts 198°
2026-04-24 02:32 45.59213 -122.59643 45 ft 0 kts 198°